Regional Weather Roundup
Issued by NWS

Home | Current Version | Previous Version | Graphics & Text | Print | Product List | Glossary Off
Versions: 1 2 3 4 5 6 7 8 9 10 11 12 13 14 15 16 17 18 19 20 21 22 23 24 25 26 27 28 29 30 31 32 33 34 35 36 37 38 39 40 41 42 43 44 45 46 47 48 49 50

000
ASUS43 KMPX 281910
RWRMN
WEATHER ROUNDUP FOR MINNESOTA
NATIONAL WEATHER SERVICE TWIN CITIES/CHANHASSEN MN
100 PM CST FRI NOV 28 2014


NOTE: "FAIR" INDICATES FEW OR NO CLOUDS BELOW 12,000 FEET WITH NO
SIGNIFICANT WEATHER AND/OR OBSTRUCTIONS TO VISIBILITY. N/A MEANS
CURRENT SKY AND/OR WEATHER CONDITIONS ARE NOT AVAILABLE.

MNZ060>063-068>070-282000-
   Twin Cities Metro

CITY           SKY/WX    TMP DP  RH WIND       PRES   REMARKS
TWIN CITIES    PTSUNNY   20  12  71 E13       29.88F WCI   7
ST PAUL        CLOUDY    21  13  71 SE12      29.91F WCI   9
CRYSTAL        CLOUDY    21  12  68 VRB6      29.86F WCI  13
BLAINE         CLOUDY    21  16  79 SE8       29.87F WCI  12
LAKEVILLE      PTSUNNY   19  14  79 E12       29.84F WCI   7
EDEN PRAIRIE   PTSUNNY   20  13  74 E10       29.86F WCI   9
SOUTH ST PAUL  MOSUNNY   22  13  69 SE6       29.89F WCI  15
LAKE ELMO      CLOUDY    21  14  73 SE8       29.90F WCI  12
$$
MNZ001>005-007-008-013>017-022>024-027-028-282000-
   Northwest Minnesota

CITY           SKY/WX    TMP DP  RH WIND       PRES   REMARKS
BEMIDJI        LGT SNOW  12   7  79 E6        29.86F WCI   3
HALLOCK          N/A     16   9  73 E3        29.89S
ROSEAU         CLOUDY    14   7  73 E9        29.89F WCI   2
WARROAD        MOSUNNY   12   7  79 NE9       29.89F WCI   0
THIEF RVR FALL PTSUNNY   12  10  92 E10       29.85F WCI  -1
CROOKSTON      FLURRIES  16   9  73 SE5       29.88F WCI   9
FOSSTON        CLOUDY    12   7  79 E7        29.84F WCI   2
DETROIT LAKES  CLOUDY    16  10  79 SE6       29.82F WCI   7
MOORHEAD       MIX PCPN  16  10  79 E5        29.84F WCI   9
PARK RAPIDS    CLOUDY    13   7  77 E7        29.83F WCI   3
MAHNOMEN       CLOUDY    14   7  72 E8        29.82F WCI   3
$$
MNZ006-009>011-018-025>026-282000-
   North Central Minnesota

CITY           SKY/WX    TMP DP  RH WIND       PRES   REMARKS
BAUDETTE       CLOUDY    13   5  70 E7        29.88F WCI   3
FLAG ISLAND    MOSUNNY   10   1  67 E6        29.91F WCI   1
INTL FALLS     CLOUDY    14   6  70 E9        29.90F WCI   2
WASKISH        FLURRIES  16   9  73 CALM      29.89F
BIG FORK       FLURRIES  16   7  67 CALM      29.89F
LONGVILLE      LGT SNOW  12   9  85 SE5       29.87F WCI   4
GRAND RAPIDS   CLOUDY    10   7  85 SE7       29.85F WCI   0
CRANE LAKE     FLURRIES  12   7  79 NE3       29.96F
ORR            FLURRIES  14   7  73 CALM      29.88F
COOK           FLURRIES  14   9  79 CALM      29.90F
WALKER         CLOUDY    12   6  76 E3        29.85F
$$
MNZ012-019>021-037-282000-
   Northeast Minnesota

CITY           SKY/WX    TMP DP  RH WIND       PRES   REMARKS
DULUTH         FLURRIES  13   8  81 E3        29.90F
ELY            FLURRIES  16  10  79 SE3       29.91F
HIBBING        CLOUDY    15   7  70 SE8       29.90F WCI   4
EVELETH        LGT SNOW  16  10  79 SE7       29.91F WCI   6
DULUTH HARBOR  CLOUDY    18  10  73 CALM      29.98F
TWO HARBORS    LGT SNOW  18  12  79 S6        29.92S WCI   9
SILVER BAY     LGT SNOW  19  16  86 E3        29.92F
GRAND MARAIS     N/A     22  10  60 VRB6      30.01F WCI  14
G MARAIS ARPRT LGT SNOW  16   7  67 SE3       29.92F
$$
MNZ029>031-032-039>041-046>048-054>057-064-282000-
   West Central Minnesota

CITY           SKY/WX    TMP DP  RH WIND       PRES   REMARKS
FERGUS FALLS   MIX PCPN  16   7  67 SE7       29.86S WCI   6
WHEATON        MOSUNNY   16  10  79 SE12      29.82F WCI   3
MORRIS         MOSUNNY   18  12  79 SE14      29.80F WCI   4
ALEXANDRIA     CLOUDY    14   9  80 E12       29.82S WCI   0
ELBOW LAKE     CLOUDY    15  10  81 E9        29.81F WCI   3
WADENA         CLOUDY    12   7  79 E9        29.82F WCI   0
GLENWOOD       MOSUNNY   16  10  79 SE13      29.82F WCI   2
APPLETON       PTSUNNY   19  12  73 E10       29.81F WCI   8
BENSON         MOSUNNY   18  12  79 SE8       29.81F WCI   7
ORTONVILLE     LGT SNOW  18  10  73 E6        29.80F WCI   9
MADISON        PTSUNNY   19  16  86 SE8       29.80F WCI   9
WILLMAR        FAIR      19  12  73 E12       29.83F WCI   7
$$
MNZ033>034-036-042>043-049>051-058-059-282000-
   Central Minnesota

CITY           SKY/WX    TMP DP  RH WIND       PRES   REMARKS
ST CLOUD       MIX PCPN  18  12  77 E7        29.85F WCI   9
SAUK CENTRE    LGT SNOW  15  11  83 E12       29.82F WCI   1
PAYNESVILLE    CLOUDY    15  10  81 NE8       29.84F WCI   4
AITKIN         MIX PCPN  18   9  68 E3        29.86F
PINE RIVER     CLOUDY    14   9  79 SE7       29.89F WCI   4
BRAINERD       CLOUDY    13   7  77 SE6       29.87F WCI   4
STAPLES        CLOUDY    12   7  79 E8        29.84F WCI   1
LONG PRAIRIE   FLURRIES  14   9  79 E8        29.82F WCI   3
LITTLE FALLS   FLURRIES  16   9  73 E6        29.86F WCI   7
LITCHFIELD     PTSUNNY   19  16  86 E9        29.84F WCI   9
BUFFALO        CLOUDY    20  13  73 E7        29.87F WCI  11
MAPLE LAKE     CLOUDY    21  15  77 E5        29.87F WCI  14
$$
MNZ037-044-045-052-053-282000-
   East Central Minnesota

CITY           SKY/WX    TMP DP  RH WIND       PRES   REMARKS
PRINCETON      PTSUNNY   19  12  73 E6        29.88F WCI  11
MORA             N/A    N/A N/A N/A MISG        N/A
CAMBRIDGE      PTSUNNY   19  10  68 E7        29.88F WCI  10
RUSH CITY      CLOUDY    18  11  75 SE6       29.91F WCI   9
MOOSE LAKE     FLURRIES  18  10  73 SE3       29.89F
HINCKLEY       FLURRIES  18  12  79 CALM      29.91F
CLOQUET        LGT SNOW  12   9  85 CALM      29.91S
MCGREGOR       PTSUNNY   18  10  73 SE7       29.89F WCI   8
$$
MNZ071>073-080-081-089-090-097-098-282000-
   Southwest Minnesota

CITY           SKY/WX    TMP DP  RH WIND       PRES   REMARKS
MONTEVIDEO     MOSUNNY   18  16  93 SE9       29.82F WCI   6
GRANITE FALLS  MOSUNNY   19  14  81 E8        29.83F WCI   9
CANBY          PTSUNNY   19  15  82 SE6       29.79F WCI  11
MARSHALL       PTSUNNY   19  14  79 SE9       29.78F WCI   9
REDWOOD FALLS  PTSUNNY   20  15  81 SE12      29.81F WCI   8
OLIVIA         MOSUNNY   21  16  79 E10       29.81F WCI  10
PIPESTONE      MOSUNNY   30  25  80 SE9       29.70F WCI  22
WINDOM         CLOUDY    23  19  86 SE3       29.77F
WORTHINGTON    PTSUNNY   27  21  80 SE9       29.75F WCI  17
JACKSON        PTSUNNY   27  21  80 SE9       29.76F WCI  17
TRACY          CLOUDY    25  19  80 E6        29.77F WCI  18
SLAYTON        PTSUNNY   26  22  85 E6        29.75F WCI  19
$$
MNZ065>067-074>077-082>085-091>093-282000-
   South Central Minnesota

CITY           SKY/WX    TMP DP  RH WIND       PRES   REMARKS
MANKATO        CLOUDY    21  16  79 SE12      29.84R WCI   9
NEW ULM        PTSUNNY   19  18  93 SE7       29.83F WCI  10
ST JAMES       CLOUDY    23  19  86 SE8       29.82F WCI  14
FAIRMONT       CLOUDY    23  18  80 SE10      29.79F WCI  12
GLENCOE        PTSUNNY   21  17  84 E9        29.85F WCI  11
FARIBAULT      MIX PCPN  21  16  79 SE9       29.84F WCI  11
OWATONNA       PTSUNNY   21  16  79 SE12      29.82F WCI   9
WASECA         CLOUDY    21  16  79 SE9G16    29.86S WCI  11
ALBERT LEA     CLOUDY    21  18  86 SE13      29.83F WCI   9
$$
MNZ078>079-086>088-094>096-282000-
   Southeast Minnesota

CITY           SKY/WX    TMP DP  RH WIND       PRES   REMARKS
ROCHESTER      PTSUNNY   21  15  78 SE15      29.87F WCI   8
RED WING       MOSUNNY   25  12  58 SE9       29.91F WCI  15
STANTON        PTSUNNY   24  15  70 E6        29.86F WCI  17
DODGE CENTER   MIX PCPN  21  18  86 SE14      29.83F WCI   8
WINONA         PTSUNNY   28  18  64 S7        29.94F WCI  21
AUSTIN         MIX PCPN  19  16  86 SE9       29.85F WCI   9
PRESTON        PTSUNNY   22  17  80 S10       29.88F WCI  11
$$
ABBREVIATIONS USED IN REMARKS
   TC - TEMPERATURES IN CELSIUS
  WCI - WIND CHILL INDEX
   HX - HEAT INDEX
  VSB - VISIBILITY
$$



USA.gov is the U.S. government's official web portal to all federal, state and local government web resources and services.